This is the latest recevied weather packets stored in our database for station/object KK6LVQ-13. If no packets are shown the sender has not sent any weather packets the latest 10 day(s).
| Time | Temp. | Humidity | Pressure | Rain* | Wind** | Luminosity | Snow |
|---|---|---|---|---|---|---|---|
| 1777735258 | 10.56° C | 98% | 1019.3 hPa | 0 mm | - | 57 W/m² | - |
| 1777734955 | 10° C | 98% | 1019.2 hPa | 0 mm | - | 44 W/m² | - |
| 1777734652 | 10° C | 98% | 1019.3 hPa | 0 mm | - | 43 W/m² | - |
| 1777734350 | 10° C | 98% | 1019.2 hPa | 0 mm | - | 44 W/m² | - |
| 1777734045 | 10° C | 98% | 1019.1 hPa | 0 mm | - | 42 W/m² | - |
| 1777733742 | 10° C | 99% | 1019 hPa | 0 mm | - | 38 W/m² | - |
| 1777733439 | 10° C | 99% | 1018.9 hPa | 0 mm | - | 35 W/m² | - |
| 1777733135 | 10° C | 99% | 1018.9 hPa | 0 mm | - | 32 W/m² | - |
| 1777732832 | 10° C | 99% | 1018.9 hPa | 0 mm | - | 29 W/m² | - |
| 1777732528 | 10° C | 99% | 1018.9 hPa | 0 mm | - | 25 W/m² | - |
| 1777732227 | 10° C | 99% | 1018.8 hPa | 0 mm | - | 23 W/m² | - |
| 1777731923 | 10° C | 99% | 1018.9 hPa | 0 mm | - | 20 W/m² | - |
| 1777731620 | 10° C | 99% | 1019 hPa | 0 mm | - | 19 W/m² | - |
| 1777731318 | 10° C | 99% | 1018.8 hPa | 0 mm | - | 17 W/m² | - |
| 1777731015 | 10° C | 99% | 1018.7 hPa | 0 mm | - | 16 W/m² | - |
| 1777730714 | 10° C | 99% | 1018.9 hPa | 0 mm | - | 14 W/m² | - |
| 1777730105 | 10° C | 99% | 1018.5 hPa | 0 mm | - | 11 W/m² | - |
| 1777729802 | 10° C | 98% | 1018.7 hPa | 0 mm | - | 10 W/m² | - |
| 1777729499 | 10° C | 98% | 1018.6 hPa | 0 mm | - | 8 W/m² | - |
| 1777729195 | 10° C | 98% | 1018.5 hPa | 0 mm | - | 6 W/m² | - |
| 1777728892 | 10° C | 98% | 1018.7 hPa | 0 mm | - | 5 W/m² | - |
| 1777728589 | 10° C | 98% | 1018.5 hPa | 0 mm | - | 4 W/m² | - |
| 1777728286 | 10° C | 98% | 1018.5 hPa | 0 mm | - | 2 W/m² | - |
| 1777727984 | 10° C | 98% | 1018.5 hPa | 0 mm | - | 1 W/m² | - |
| 1777727680 | 10° C | 98% | 1018.7 hPa | 0 mm | - | 1 W/m² | - |
* Rain latest hour (hover to see other rain measurements)
** Current wind speed in m/s (hover to see current wind gust speed)